星链-30295 (STARLINK-30295 )

导读 | 豆包AI

STARLINK-30295是美国SpaceX公司星链(Starlink)低轨互联网星座中的一颗卫星,于2023年8月22日发射升空。星链星座旨在为全球提供宽带互联网服务,该卫星运行于近地轨道,属于量产型通信卫星,配备霍尔推进器和自主避撞系统,设计寿命5年以上,退役后会坠入大气层焚毁。作为星链组网卫星之一,它进一步拓展了星链星座的全球覆盖能力与通信容量。

基本信息
目录编号:
57683
目录名称:
STARLINK-30295
国际标识:
2023-124W
轨道中心:
EARTH
卫星名称:
星链-30295
卫星全名:
星链-30295 (STARLINK-30295 )
卫星状态:
在轨 (已飞行982 天)
发射日期:
2023-08-22 UTC
国别 :
美国 (US)
星等 :
--
轨道信息
数据来源 国际轨道数据 AOE轨道数据
星历时间 2026-04-30T07:04:56+0800
17小时前
查看轨道信息
2026-04-27T18:00:00+0800
3天前
查看轨道信息
半长轴 6853.463km 6853.371km
偏心率 0.0001211 0.000157
轨道倾角 53.162° 53.159°
近地点辐角 98.380° 58.008°
升交点赤经 328.915° 340.735°
平近点角 261.733° 314.305°
近地点 474.496km 474.158km
远地点 476.156km 476.31km
周期 94.108分钟 94.106分钟
每日圈数 15.301629 15.301937
详细信息
固有亮度:
5
最大亮度:
0.3
卫星平台:
Starlink v2.0 mini
覆盖范围:
全球
运营商:
太空探索技术公司
运营商所在国:
美国
制造商(研发单位):
太空探索技术公司
制造商所在国:
美国
使用方式:
暂无
卫星简介
星链(Starlink)计划是由太空探索技术公司(SpaceX)提出的一个巨型低轨卫星互联网星座项目,计划在2019年至2024年间在太空搭建由约1.2万颗卫星组成的“星链”网络,其中1584颗将部署在地球上空550千米处的近地轨道,并从2020年开始工作。该卫星仍在工作。
2D轨道图
3D轨道图
轨道高度分析图
轨道倾角分析图
轨道综合分析图
查看轨道综合分析图